• In Latvia
  • List of Countries
  • For 7 days
  • Water Temperature
  • Satellite Maps
  • Weather Map
  • Weather Widgets
  • user-avatar
    Login

    Hourly Weather Loganesti

    Today, 19 October, Friday

    Time Temperature Precipitation Wind Pressure Humidity
    00:00 +13°C° 0 mm 0 mps 750 mmHg 64%
    01:00 +13°C° 0 mm 0 mps 750 mmHg 65%
    02:00 +13°C° 0 mm 0 mps 750 mmHg 67%
    03:00 +13°C° 0 mm 0 mps 750 mmHg 68%
    04:00 +13°C° 0 mm 0 mps 750 mmHg 68%
    05:00 +13°C° 0 mm 0 mps 750 mmHg 68%
    06:00 +13°C° 0 mm 0 mps 750 mmHg 66%
    07:00 +14°C° 0 mm 0 mps 750 mmHg 64%
    08:00 +16°C° 0 mm 1 mps 750 mmHg 62%
    09:00 +18°C° 0 mm 1 mps 750 mmHg 57%
    10:00 +19°C° 0 mm 1 mps 750 mmHg 52%
    11:00 +20°C° 0 mm 1 mps 750 mmHg 47%
    12:00 +21°C° 0 mm 1 mps 750 mmHg 45%
    13:00 +20°C° 0 mm 2 mps 750 mmHg 43%
    14:00 +21°C° 0 mm 2 mps 750 mmHg 41%
    15:00 +20°C° 0 mm 2 mps 750 mmHg 43%
    16:00 +19°C° 0 mm 2 mps 749 mmHg 46%
    17:00 +19°C° 0 mm 2 mps 749 mmHg 48%
    18:00 +18°C° 0 mm 2 mps 749 mmHg 49%
    19:00 +17°C° 0 mm 2 mps 750 mmHg 51%
    20:00 +18°C° 0 mm 1 mps 750 mmHg 52%
    21:00 +16°C° 0 mm 2 mps 750 mmHg 53%
    22:00 +16°C° 0 mm 2 mps 750 mmHg 53%
    23:00 +16°C° 0 mm 2 mps 750 mmHg 54%

    Tomorrow, 20 October, Saturday

    Time Temperature Precipitation Wind Pressure Humidity
    00:00 +15°C° 0 mm 2 mps 750 mmHg 56%
    01:00 +15°C° 0 mm 2 mps 750 mmHg 59%
    02:00 +14°C° 0 mm 2 mps 750 mmHg 61%
    03:00 +14°C° 0 mm 2 mps 750 mmHg 64%
    04:00 +14°C° 0 mm 2 mps 750 mmHg 67%
    05:00 +13°C° 0 mm 3 mps 750 mmHg 70%
    06:00 +13°C° 0 mm 3 mps 750 mmHg 69%
    07:00 +13°C° 0 mm 3 mps 750 mmHg 68%
    08:00 +13°C° 0 mm 4 mps 751 mmHg 68%
    09:00 +15°C° 0 mm 4 mps 751 mmHg 61%
    10:00 +18°C° 0 mm 4 mps 751 mmHg 54%
    11:00 +19°C° 0 mm 4 mps 751 mmHg 47%
    12:00 +20°C° 0 mm 4 mps 751 mmHg 45%
    13:00 +21°C° 0 mm 4 mps 751 mmHg 42%
    14:00 +22°C° 0 mm 5 mps 751 mmHg 40%
    15:00 +21°C° 0 mm 4 mps 750 mmHg 43%
    16:00 +20°C° 0 mm 4 mps 750 mmHg 46%
    17:00 +19°C° 0 mm 3 mps 750 mmHg 49%
    18:00 +18°C° 0 mm 3 mps 751 mmHg 52%
    19:00 +17°C° 0 mm 3 mps 751 mmHg 55%
    20:00 +16°C° 0 mm 3 mps 751 mmHg 59%
    21:00 +16°C° 0 mm 3 mps 751 mmHg 62%
    22:00 +16°C° 0 mm 3 mps 751 mmHg 65%
    23:00 +14°C° 0 mm 3 mps 751 mmHg 68%

    Day after tomorrow, 21 October, Sunday

    Time Temperature Precipitation Wind Pressure Humidity
    00:00 +14°C° 0 mm 3 mps 751 mmHg 71%
    01:00 +13°C° 0 mm 4 mps 751 mmHg 75%
    02:00 +13°C° 0 mm 4 mps 751 mmHg 78%
    03:00 +12°C° 0 mm 4 mps 751 mmHg 81%
    04:00 +12°C° 0 mm 4 mps 751 mmHg 83%
    05:00 +12°C° 0 mm 3 mps 751 mmHg 86%
    06:00 +12°C° 0 mm 4 mps 751 mmHg 83%
    07:00 +12°C° 0 mm 4 mps 751 mmHg 81%
    08:00 +13°C° 0 mm 4 mps 751 mmHg 78%
    09:00 +13°C° 0.2 mm 5 mps 751 mmHg 75%
    10:00 +13°C° 0.2 mm 5 mps 751 mmHg 71%
    11:00 +14°C° 0.2 mm 5 mps 751 mmHg 68%
    12:00 +14°C° 0.2 mm 5 mps 751 mmHg 65%
    13:00 +14°C° 0.2 mm 5 mps 751 mmHg 62%
    14:00 +14°C° 0.2 mm 5 mps 751 mmHg 60%
    15:00 +13°C° 0.1 mm 4 mps 751 mmHg 60%
    16:00 +13°C° 0.1 mm 4 mps 751 mmHg 59%
    17:00 +13°C° 0.1 mm 4 mps 751 mmHg 59%
    18:00 +12°C° 0 mm 4 mps 751 mmHg 60%
    19:00 +12°C° 0 mm 4 mps 751 mmHg 61%
    20:00 +12°C° 0 mm 4 mps 751 mmHg 62%
    21:00 +11°C° 0 mm 4 mps 751 mmHg 64%
    22:00 +11°C° 0 mm 4 mps 751 mmHg 65%
    23:00 +11°C° 0 mm 4 mps 751 mmHg 66%

    22 October, Monday

    Time Temperature Precipitation Wind Pressure Humidity
    00:00 +10°C° 0 mm 4 mps 751 mmHg 67%
    01:00 +10°C° 0 mm 4 mps 752 mmHg 68%
    02:00 +10°C° 0 mm 4 mps 752 mmHg 69%
    03:00 +8°C° 0 mm 4 mps 752 mmHg 71%
    04:00 +8°C° 0 mm 4 mps 751 mmHg 72%
    05:00 +7°C° 0 mm 4 mps 751 mmHg 74%
    06:00 +8°C° 0 mm 4 mps 752 mmHg 73%
    07:00 +8°C° 0 mm 4 mps 752 mmHg 72%
    08:00 +8°C° 0 mm 5 mps 752 mmHg 71%
    09:00 +10°C° 0 mm 5 mps 752 mmHg 67%
    10:00 +12°C° 0 mm 5 mps 752 mmHg 62%
    11:00 +14°C° 0 mm 5 mps 752 mmHg 58%
    12:00 +15°C° 0 mm 5 mps 751 mmHg 56%
    13:00 +15°C° 0 mm 5 mps 751 mmHg 54%
    14:00 +16°C° 0 mm 5 mps 750 mmHg 52%
    15:00 +15°C° 0 mm 5 mps 750 mmHg 54%
    16:00 +15°C° 0 mm 4 mps 750 mmHg 57%
    17:00 +14°C° 0 mm 3 mps 750 mmHg 60%
    18:00 +13°C° 0 mm 3 mps 750 mmHg 62%
    19:00 +12°C° 0 mm 3 mps 750 mmHg 65%
    20:00 +11°C° 0 mm 3 mps 750 mmHg 67%
    21:00 +11°C° 0 mm 3 mps 750 mmHg 68%
    22:00 +11°C° 0 mm 3 mps 750 mmHg 69%
    23:00 +11°C° 0 mm 3 mps 750 mmHg 70%

    23 October, Tuesday

    Time Temperature Precipitation Wind Pressure Humidity
    00:00 +10°C° 0 mm 3 mps 749 mmHg 71%
    01:00 +10°C° 0 mm 3 mps 749 mmHg 72%
    02:00 +10°C° 0 mm 3 mps 749 mmHg 73%
    03:00 +9°C° 0 mm 3 mps 749 mmHg 75%
    04:00 +9°C° 0 mm 3 mps 749 mmHg 76%
    05:00 +8°C° 0 mm 3 mps 748 mmHg 78%
    06:00 +8°C° 0 mm 3 mps 748 mmHg 75%
    07:00 +9°C° 0 mm 3 mps 749 mmHg 73%
    08:00 +9°C° 0 mm 3 mps 749 mmHg 71%
    09:00 +10°C° 0 mm 4 mps 749 mmHg 64%
    10:00 +12°C° 0 mm 4 mps 748 mmHg 58%
    11:00 +13°C° 0 mm 4 mps 748 mmHg 52%
    12:00 +14°C° 0 mm 4 mps 748 mmHg 49%
    13:00 +14°C° 0 mm 3 mps 748 mmHg 47%
    14:00 +16°C° 0 mm 3 mps 747 mmHg 45%
    15:00 +14°C° 0 mm 3 mps 747 mmHg 47%
    16:00 +14°C° 0 mm 2 mps 747 mmHg 49%
    17:00 +14°C° 0 mm 2 mps 747 mmHg 52%
    18:00 +13°C° 0 mm 2 mps 747 mmHg 54%
    19:00 +11°C° 0 mm 3 mps 747 mmHg 57%
    20:00 +10°C° 0 mm 3 mps 747 mmHg 60%
    21:00 +10°C° 0 mm 3 mps 747 mmHg 62%
    22:00 +9°C° 0 mm 3 mps 747 mmHg 64%
    23:00 +9°C° 0 mm 3 mps 748 mmHg 67%

    24 October, Wednesday

    Time Temperature Precipitation Wind Pressure Humidity
    00:00 +8°C° 0 mm 3 mps 747 mmHg 68%
    01:00 +8°C° 0 mm 3 mps 747 mmHg 69%
    02:00 +7°C° 0 mm 3 mps 747 mmHg 70%
    03:00 +7°C° 0 mm 3 mps 747 mmHg 72%
    04:00 +5°C° 0 mm 3 mps 747 mmHg 74%
    05:00 +5°C° 0 mm 3 mps 747 mmHg 76%
    06:00 +6°C° 0 mm 2 mps 746 mmHg 75%
    07:00 +6°C° 0 mm 2 mps 746 mmHg 75%
    08:00 +7°C° 0 mm 2 mps 746 mmHg 75%
    09:00 +8°C° 0 mm 2 mps 746 mmHg 67%
    10:00 +10°C° 0 mm 3 mps 745 mmHg 59%
    11:00 +12°C° 0 mm 3 mps 745 mmHg 51%
    12:00 +13°C° 0 mm 4 mps 744 mmHg 48%
    13:00 +14°C° 0 mm 4 mps 743 mmHg 44%
    14:00 +15°C° 0 mm 5 mps 742 mmHg 41%
    15:00 +14°C° 0 mm 5 mps 741 mmHg 39%
    16:00 +14°C° 0 mm 6 mps 740 mmHg 38%
    17:00 +13°C° 0 mm 6 mps 739 mmHg 36%
    18:00 +13°C° 0 mm 6 mps 739 mmHg 38%
    19:00 +11°C° 0 mm 7 mps 738 mmHg 39%
    20:00 +11°C° 0 mm 7 mps 738 mmHg 41%
    21:00 +11°C° 0.2 mm 7 mps 738 mmHg 46%
    22:00 +10°C° 0.2 mm 8 mps 737 mmHg 52%
    23:00 +10°C° 0.2 mm 8 mps 737 mmHg 57%
    Show more